Theta_e
329 331 332 334 336 337 338 339 340 342 342 343 344 347 349 351 351 351 351 351 350 348 343 340 339 338 336 334 333 332 333 333 334 332 332 330 331 331 331 332 332 331 330 330 329 330 334 333 332 333 332 333 332 332 332 334 336 338 335 335 335 334 332
326 330 332 333 334 336 337 339 339 341 342 343 344 346 349 350 351 351 350 350 350 347 341 339 339 337 335 333 334 333 333 334 336 338 333 333 336 333 333 332 331 331 330 331 330 330 331 333 334 333 332 333 335 333 332 332 334 334 335 334 333 332 331
325 329 331 332 333 334 336 337 338 340 341 342 344 346 348 350 351 351 350 348 347 346 341 338 339 336 335 332 333 334 334 334 335 335 332 332 333 333 332 333 331 331 331 331 331 331 334 333 333 332 332 333 334 333 332 331 333 334 333 333 334 334 329
325 328 330 332 333 334 335 336 337 339 341 342 344 346 348 350 352 351 350 348 346 344 339 338 338 336 335 333 333 335 335 334 334 334 333 333 333 331 332 331 331 331 331 331 332 333 336 335 333 332 340 333 332 332 331 333 332 332 332 332 332 333 332
324 327 330 330 331 332 334 335 336 337 339 342 344 347 349 351 352 351 349 348 346 344 341 339 338 336 336 335 334 336 336 334 334 334 332 333 333 331 331 331 331 331 331 330 330 336 334 334 332 332 332 334 332 331 332 331 332 332 331 331 331 332 332
322 325 328 330 331 332 333 335 336 337 339 340 342 345 348 350 351 350 349 347 345 344 342 339 338 338 335 335 335 337 336 335 335 334 332 332 331 330 330 331 331 330 328 328 332 332 332 333 332 332 331 331 332 331 331 330 331 331 331 330 331 331 332
322 324 327 329 331 332 332 333 336 338 339 341 343 346 348 349 350 349 348 345 344 342 340 338 338 337 336 337 337 338 335 334 334 333 332 331 331 331 330 331 333 330 330 329 330 332 331 331 331 331 331 330 331 330 330 329 329 330 329 328 329 329 330
323 323 326 329 330 332 332 333 335 337 339 341 342 344 346 348 349 348 346 345 343 342 340 339 337 337 337 338 338 338 336 335 334 333 332 331 331 331 330 330 331 330 329 328 329 330 331 331 331 331 330 329 328 329 330 329 329 329 329 330 329 329 331
323 324 325 328 329 331 332 332 334 337 338 340 342 344 346 347 347 346 345 344 342 341 340 340 338 338 339 339 338 338 337 335 334 333 332 331 331 331 330 330 330 331 330 329 329 330 330 330 329 329 329 328 329 329 329 329 329 329 329 329 329 329 329
322 323 324 327 329 331 331 332 334 336 337 339 341 342 344 346 346 345 344 343 342 340 340 340 339 339 339 339 339 338 337 335 334 333 332 331 331 330 330 331 331 333 331 331 330 329 331 330 329 329 328 328 329 329 329 329 329 329 330 330 330 329 329
322 323 324 325 327 328 330 331 333 336 338 339 340 342 344 345 344 344 343 342 341 341 341 340 340 339 339 339 339 338 337 335 334 333 332 331 331 331 331 331 332 332 332 331 330 330 329 330 330 329 329 329 329 329 328 329 329 329 329 330 330 330 330
322 323 323 324 326 327 329 331 334 336 337 339 341 342 343 344 344 343 343 342 342 340 340 340 340 340 339 339 339 338 337 336 334 333 332 332 331 331 332 332 332 332 334 333 331 330 329 329 329 331 329 329 329 329 328 329 329 329 329 330 331 330 330
322 323 324 325 327 329 330 331 333 335 337 339 341 342 343 343 343 342 342 341 341 341 340 339 340 341 339 338 338 337 337 336 335 334 333 333 332 332 332 332 333 334 332 333 331 329 328 327 326 329 329 328 327 328 328 328 328 329 329 329 329 329 329
330 324 324 326 327 328 329 331 333 335 336 339 341 342 343 344 343 342 341 341 341 341 340 340 339 339 339 338 338 337 337 336 336 335 334 333 333 333 333 334 334 334 332 330 328 326 326 325 324 324 327 326 326 328 328 327 327 327 327 327 328 329 329
324 324 325 325 326 329 330 331 332 334 336 338 340 341 342 343 342 342 341 342 341 341 340 340 339 339 339 338 338 337 337 337 336 335 334 335 333 333 333 333 333 332 329 329 328 328 326 325 325 324 325 324 325 325 326 326 326 326 326 325 326 328 329
324 324 325 326 327 329 331 332 333 335 337 338 340 341 342 342 341 341 341 341 341 341 341 341 339 338 338 338 338 337 337 336 336 335 334 334 333 333 333 333 332 330 328 327 327 327 327 326 326 324 325 325 324 324 325 326 327 331 329 330 328 327 329
324 324 325 326 327 328 330 332 333 335 337 338 340 341 342 342 342 341 341 341 341 341 342 341 339 339 338 338 338 337 336 337 336 334 333 334 334 334 333 332 330 329 327 326 326 327 328 328 326 325 324 324 324 324 325 326 328 329 326 327 330 331 328
323 324 325 326 327 328 329 331 332 333 336 338 340 341 342 342 341 341 340 341 341 341 342 341 340 339 338 338 338 335 335 336 336 334 334 333 333 334 333 331 329 328 327 326 326 327 328 328 327 326 326 326 325 324 325 325 330 324 324 326 327 330 331
323 324 325 326 327 328 328 329 332 334 335 338 341 342 343 343 341 340 341 341 342 342 341 341 340 339 339 338 337 334 335 335 335 335 334 334 333 333 332 330 329 328 327 327 327 327 327 327 326 326 326 326 325 325 326 326 327 323 323 323 324 326 329
323 325 326 327 328 329 329 330 330 332 335 337 340 343 344 344 342 342 342 342 341 340 340 340 340 338 337 337 336 335 335 335 336 334 334 334 333 332 330 329 329 329 328 328 327 327 326 326 326 326 326 327 326 326 326 325 327 323 322 321 322 323 326
323 326 328 330 331 333 332 331 330 330 331 335 337 339 341 341 341 339 338 339 338 339 339 339 336 334 337 335 334 335 335 336 334 333 333 333 333 331 330 329 329 328 328 328 327 326 326 326 326 327 328 328 328 327 326 327 324 321 321 319 319 320 324
322 324 327 329 331 333 334 335 335 334 334 336 338 338 339 340 340 338 338 336 337 336 336 335 333 333 334 334 334 334 336 335 333 333 333 333 331 330 330 330 329 328 328 328 327 327 328 327 327 327 328 329 328 327 326 327 323 320 320 318 318 320 323
323 325 328 329 331 333 336 338 338 338 337 336 337 337 337 338 338 337 333 331 333 333 333 333 330 330 332 333 334 335 335 334 333 332 332 332 330 329 330 330 329 328 328 328 327 327 327 328 328 328 328 328 328 326 326 326 324 319 316 315 317 318 321
323 326 327 328 330 333 332 335 337 338 338 336 336 336 336 335 333 330 329 329 329 329 330 329 329 330 331 333 333 335 335 333 333 332 331 330 329 330 330 330 329 328 330 328 328 328 328 328 328 328 328 328 327 327 326 325 323 318 315 313 316 319 320
321 323 323 325 331 333 334 335 336 338 337 335 333 331 331 330 329 328 327 327 328 329 329 328 329 331 331 332 333 334 334 333 332 331 330 330 330 330 330 329 329 329 330 330 329 328 327 330 328 327 326 327 327 330 329 325 323 319 316 314 314 318 320
318 321 322 322 327 332 333 339 339 337 336 334 330 328 328 328 328 328 327 328 329 328 328 329 330 332 333 333 332 332 332 332 332 331 330 329 330 330 330 330 329 329 329 329 329 329 329 328 328 326 326 326 327 327 326 325 325 326 316 311 311 314 321
333 335 335 339 339 343 336 337 338 337 335 331 328 328 328 328 328 328 328 327 326 327 328 329 330 331 332 332 332 333 333 332 332 331 331 330 330 330 331 330 330 329 329 329 329 328 327 327 326 326 325 325 325 324 324 325 325 326 314 309 309 312 316
338 340 341 343 342 340 339 337 334 331 329 328 328 328 328 327 327 327 326 326 325 327 329 329 330 330 330 330 332 334 333 333 333 333 333 332 331 330 329 329 330 329 329 329 327 326 326 326 325 324 323 323 323 323 323 327 331 325 319 311 307 307 312
334 336 336 337 338 340 338 334 332 330 329 329 329 328 328 327 327 326 326 324 326 328 329 328 328 328 329 329 330 330 331 334 334 334 333 332 331 330 329 328 328 327 328 326 325 325 325 324 323 322 322 321 321 322 323 322 327 326 325 313 307 305 307
330 331 332 334 335 335 335 332 331 331 330 330 329 328 328 328 327 326 325 324 326 327 329 328 328 328 328 329 329 330 333 334 335 334 332 331 330 329 328 327 327 327 327 326 325 323 323 323 321 320 320 320 319 318 320 321 320 323 324 322 312 306 304
330 330 330 331 333 333 334 333 331 331 330 330 329 328 328 328 327 327 325 325 328 328 328 327 327 326 326 328 330 332 333 333 332 332 331 331 330 328 328 327 327 325 325 325 323 322 322 322 319 319 320 319 319 318 317 319 318 319 323 324 321 311 305
328 329 329 330 329 331 332 331 331 330 330 329 329 328 329 328 328 327 326 329 331 329 329 329 328 328 329 331 332 333 332 332 330 330 330 330 329 328 327 327 326 326 324 322 322 321 320 320 317 318 317 317 317 317 317 317 317 319 320 325 325 318 307
326 326 326 327 330 332 330 330 330 330 330 329 329 329 330 329 330 329 329 328 327 328 330 331 331 332 331 330 330 332 331 330 328 327 326 326 325 325 326 325 325 323 322 321 320 320 319 318 319 318 317 317 317 316 316 318 318 319 320 321 320 316 311
323 325 326 325 328 329 328 329 330 330 331 330 330 331 331 331 329 328 327 327 328 329 330 331 332 331 329 329 330 330 328 326 334 329 325 324 324 323 322 321 320 321 321 321 320 319 319 319 319 318 318 317 316 315 316 317 318 318 319 320 317 312 309
323 323 323 325 327 329 327 329 329 329 329 330 330 331 330 329 327 327 325 325 325 326 326 327 330 329 328 329 330 329 330 328 332 327 325 323 318 311 309 312 316 317 319 311 309 312 319 320 317 318 317 317 317 316 316 317 317 319 315 318 312 310 307
323 323 323 324 326 326 328 328 327 327 327 327 328 329 328 326 326 325 325 325 325 325 327 330 331 331 330 331 331 330 330 329 329 324 323 320 317 312 310 305 297 299 311 314 307 301 296 299 316 316 316 318 317 315 318 318 316 311 306 302 298 298 299
324 323 323 325 325 324 325 326 328 327 327 326 328 328 327 326 327 326 326 325 327 329 331 331 330 330 331 331 331 331 331 328 326 324 321 318 314 313 312 308 304 294 295 301 302 297 292 291 292 294 297 308 311 307 301 302 299 296 294 293 293 293 293
323 324 325 325 326 325 325 325 326 326 326 325 325 324 322 322 321 322 325 325 327 328 327 328 328 325 327 331 331 331 331 327 326 323 319 315 313 311 310 308 305 304 296 294 296 295 292 291 291 293 295 298 303 306 303 298 294 294 293 293 294 293 293
Wind_Speed
16 15 15 15 14 14 15 16 16 15 15 15 15 15 15 13 14 12 12 13 14 13 11 11 11 9 11 9 8 8 7 8 7 8 7 7 6 6 6 5 6 6 5 6 5 5 5 3 3 3 2 2 3 3 3 3 2 3 3 2 2 3 3
14 15 15 15 15 15 16 16 15 14 13 14 14 15 14 15 14 14 14 14 15 15 13 12 11 11 11 10 8 8 8 8 8 6 6 5 5 6 6 7 7 6 5 5 5 4 3 4 4 4 3 3 4 4 3 3 3 3 3 3 3 3 3
15 15 15 15 16 16 16 13 13 14 15 14 13 13 15 17 17 18 15 14 15 14 12 13 13 12 10 10 9 9 8 8 7 7 7 7 7 7 6 7 6 6 6 5 4 5 4 4 4 4 4 4 5 4 4 4 4 4 4 4 4 4 4
15 16 17 18 18 16 16 17 18 17 15 16 17 18 18 18 16 15 15 15 16 14 15 14 13 12 11 10 10 9 9 8 9 8 7 7 7 6 6 5 5 4 5 6 6 5 5 5 5 5 5 5 5 5 4 5 4 4 4 4 5 5 5
15 15 14 13 13 12 12 14 15 16 17 18 18 17 17 17 16 14 14 15 16 18 18 17 13 11 10 10 9 9 10 10 8 7 7 6 6 6 6 7 6 6 6 6 5 5 5 5 5 5 5 5 5 4 5 4 4 4 4 4 5 4 5
14 14 14 14 14 14 15 16 17 18 18 17 17 16 15 15 13 15 15 14 13 11 9 11 13 13 12 11 10 9 8 7 8 7 8 7 7 7 7 7 6 6 5 7 6 6 5 6 6 6 6 5 6 5 4 4 4 4 4 3 4 5 5
14 14 14 14 14 15 15 15 16 17 16 17 16 14 12 12 15 16 13 13 13 15 15 15 14 13 12 11 11 11 10 9 8 9 8 7 7 8 7 6 6 6 7 4 5 5 5 6 6 6 6 6 5 5 5 4 5 4 3 4 4 4 4
14 14 15 15 15 14 14 14 15 15 13 10 9 10 13 14 12 11 13 15 14 13 12 14 12 12 11 10 10 10 10 10 9 9 7 8 8 7 7 6 6 7 4 5 6 5 6 6 6 5 5 5 5 5 5 5 5 5 3 4 4 4 4
14 16 16 16 15 13 13 13 14 16 17 16 17 17 17 14 14 15 15 14 13 14 15 15 13 10 9 9 9 10 9 9 9 8 8 9 7 7 7 6 6 5 7 7 6 5 6 6 6 6 5 5 5 5 5 5 6 5 4 5 4 5 4
14 14 15 13 12 12 11 11 11 10 12 13 13 12 13 14 15 14 13 14 13 16 15 13 11 9 9 10 11 9 9 10 8 9 9 9 8 8 7 7 6 5 6 7 6 7 6 5 5 4 5 5 5 6 5 5 5 5 5 6 5 5 6
14 15 13 10 9 9 8 8 11 13 14 15 15 15 14 14 14 14 14 14 15 15 14 11 12 13 12 11 11 10 11 10 9 10 10 10 8 9 8 7 6 4 5 6 6 6 5 4 4 4 4 6 6 6 6 6 6 6 6 6 5 6 6
14 14 12 10 10 8 11 13 13 13 14 14 15 15 15 15 15 15 14 16 15 13 12 13 13 13 12 10 12 12 12 11 10 11 11 10 9 9 8 7 6 6 7 8 8 5 5 5 5 5 6 6 6 6 6 6 6 7 7 7 6 5 5
12 12 12 13 12 13 12 10 15 17 17 16 16 16 15 15 15 15 15 15 14 13 13 13 12 13 13 13 12 12 12 12 12 12 11 10 9 8 7 7 8 9 10 8 7 6 5 6 6 5 5 6 5 6 6 6 6 6 6 6 5 5 5
8 7 8 8 9 10 13 15 14 14 15 14 14 14 14 14 15 16 16 16 15 13 13 12 13 14 15 15 14 13 14 13 12 11 10 8 8 8 7 8 7 8 8 6 6 6 6 7 6 5 4 5 4 5 5 5 4 5 5 5 5 5 5
10 12 11 10 10 11 12 12 13 14 14 14 14 14 14 12 12 11 11 10 11 12 14 14 14 15 16 15 15 14 13 11 10 8 8 8 8 7 7 6 6 9 7 5 5 5 6 6 6 4 4 4 4 5 4 4 5 5 5 5 5 5 6
13 13 12 11 11 11 12 14 13 14 14 13 14 14 13 12 12 13 14 14 14 14 13 13 15 16 16 17 16 14 13 11 9 8 8 7 7 8 7 7 10 9 8 6 6 6 7 6 5 5 5 5 5 4 4 5 4 6 10 8 5 5 6
13 11 10 10 10 11 12 12 12 12 12 14 14 15 14 14 13 13 13 13 13 14 14 15 15 16 17 18 16 13 11 10 9 8 8 8 8 7 8 11 9 9 7 6 7 8 7 6 6 6 5 6 6 6 6 5 5 9 10 11 11 6 5
10 9 9 11 11 10 9 10 10 11 13 14 14 14 13 12 11 10 12 12 13 14 13 14 15 16 17 16 12 13 13 9 8 8 7 7 8 11 13 9 9 9 8 7 8 8 7 7 7 6 5 5 5 5 5 5 8 11 11 11 11 10 6
10 9 10 11 10 10 10 12 13 14 13 11 12 12 13 13 11 12 13 13 14 12 13 15 15 16 15 12 11 14 13 9 9 10 11 10 10 10 8 9 9 9 8 10 9 6 7 7 5 5 5 5 5 6 6 5 9 12 12 12 11 11 9
8 9 8 7 8 10 11 9 6 7 8 10 11 13 12 11 14 14 13 13 10 12 14 15 13 5 4 5 7 6 5 9 10 7 8 10 10 8 8 8 11 10 8 7 6 7 6 5 6 5 5 6 6 6 5 5 8 12 13 12 12 12 10
7 6 6 7 6 7 6 6 5 4 4 6 8 7 6 7 8 6 7 9 11 12 13 10 9 12 11 9 10 12 13 12 10 14 14 10 9 8 8 10 9 8 8 8 8 8 8 8 8 7 6 6 6 6 6 6 9 11 12 13 13 13 9
8 6 6 7 9 8 5 6 9 10 10 6 5 7 9 10 8 9 10 8 11 11 9 9 13 13 10 13 14 14 15 14 14 15 10 9 8 9 9 10 10 10 7 6 7 7 6 6 5 6 6 6 6 6 6 6 9 11 12 13 13 12 6
10 9 8 7 6 7 8 7 8 9 5 5 6 8 10 9 10 9 7 9 9 10 8 9 9 10 4 5 9 11 13 13 14 9 9 9 8 9 10 10 10 8 6 7 7 7 7 7 7 6 7 7 6 6 7 7 9 10 10 11 13 8 6
1 1 3 4 2 3 3 4 4 1 4 4 2 1 2 4 6 6 5 3 3 5 8 8 8 12 15 15 15 15 13 13 12 11 10 8 10 11 11 10 6 7 7 8 7 7 8 7 6 6 6 7 7 7 7 8 8 8 8 10 13 11 7
4 5 6 6 8 9 8 3 2 3 6 7 6 7 9 10 12 11 9 9 10 12 13 15 15 15 12 12 13 13 15 14 12 11 10 10 11 10 10 10 10 6 5 6 6 6 3 4 6 6 5 6 7 8 7 6 7 9 10 11 11 10 7
6 6 6 4 0 1 2 4 5 6 7 9 8 9 11 12 12 12 12 13 14 14 15 14 15 14 11 4 3 6 11 11 11 10 10 11 9 8 9 7 4 6 7 6 6 6 6 4 5 6 7 6 5 6 5 6 7 7 9 10 11 12 9
2 2 2 2 3 4 4 4 4 6 6 6 8 8 9 10 12 12 10 8 8 10 12 12 12 12 11 9 6 7 7 7 9 10 9 8 7 7 6 6 6 5 5 6 5 5 5 5 5 6 6 5 5 5 6 6 7 7 10 11 11 11 10
4 5 5 4 5 5 7 6 6 6 6 5 8 8 8 8 9 7 7 9 11 10 10 11 12 11 10 9 6 3 5 5 5 6 6 5 6 6 6 5 5 5 6 6 5 5 6 5 6 6 6 5 5 6 6 7 9 6 9 10 10 9 11
4 4 4 4 5 4 8 8 6 6 5 5 6 6 7 9 9 8 8 10 10 7 8 7 7 7 7 6 5 3 6 5 6 6 5 6 6 6 6 5 5 4 5 5 5 5 6 6 5 5 6 5 5 5 5 5 5 8 7 8 10 11 10
3 4 4 5 5 6 8 8 6 7 5 5 5 6 7 10 10 9 9 7 5 6 6 6 5 6 5 4 4 4 8 9 8 6 6 7 7 6 6 6 5 5 6 6 6 6 7 7 4 4 5 7 5 3 4 5 5 6 7 6 10 11 11
5 5 4 4 4 4 5 9 9 7 5 4 6 6 7 7 11 9 8 5 7 8 8 6 5 3 3 3 3 5 6 6 6 6 6 7 8 7 6 5 5 6 4 5 5 5 7 7 4 4 5 5 6 6 5 5 5 5 7 10 11 11 11
5 5 5 4 3 2 3 5 6 7 7 4 4 4 4 4 7 11 6 5 6 6 7 6 5 4 4 4 5 6 7 8 6 6 6 6 5 6 6 7 7 7 6 5 5 5 5 5 3 4 5 6 6 5 5 3 4 6 6 5 7 7 4
2 3 4 3 2 2 3 5 6 6 7 7 4 4 4 4 3 5 7 7 7 7 6 6 8 9 10 10 8 7 7 7 6 4 3 3 2 2 3 3 4 4 4 4 5 5 4 4 4 5 5 5 6 5 4 5 5 6 5 5 3 2 5
2 2 4 3 2 2 2 3 6 7 7 7 6 5 5 4 6 6 7 7 6 8 10 11 10 9 8 7 6 6 6 4 5 5 4 4 5 5 3 2 2 4 6 6 5 6 6 5 5 6 6 5 5 4 4 5 6 5 6 5 3 4 5
0 1 2 3 2 2 4 4 5 6 7 6 5 6 6 6 6 7 8 8 7 9 10 8 5 6 3 2 5 5 6 7 8 8 7 6 4 3 3 1 1 2 1 2 2 2 5 5 5 4 4 4 4 4 5 5 6 7 5 4 5 6 6
3 3 3 3 3 3 3 3 4 6 6 5 5 6 6 6 6 5 6 4 2 3 6 5 6 6 3 2 3 4 5 4 3 4 5 6 6 4 3 7 6 3 2 0 4 4 4 2 3 1 1 3 4 2 5 5 5 4 3 6 8 7 7
5 3 3 3 4 3 4 4 5 6 6 6 5 5 5 4 4 4 4 4 4 6 7 7 6 5 1 2 3 5 5 4 3 4 4 4 5 5 4 1 4 7 6 4 3 4 5 4 5 6 3 3 2 1 4 3 3 5 8 8 8 7 6
1 1 2 3 4 5 5 5 5 6 7 5 6 6 6 6 4 4 3 3 7 7 7 5 6 2 3 5 6 4 4 6 5 5 5 4 4 5 5 4 3 0 3 2 3 4 3 4 5 3 2 3 2 2 1 5 6 7 7 6 6 5 5
Wind_Direction
189 187 193 195 196 195 194 193 191 189 188 189 189 188 186 186 188 185 188 188 191 189 187 182 183 180 181 181 178 177 175 169 170 174 178 182 183 175 177 187 180 189 181 174 191 182 206 201 198 209 206 212 216 234 244 248 232 228 230 232 230 233 230
192 194 192 193 196 198 198 194 190 189 191 192 192 190 188 188 187 189 192 190 192 189 182 184 182 184 183 181 175 174 172 176 176 177 170 174 180 179 177 180 182 187 186 188 186 207 195 213 197 204 204 216 222 230 233 229 224 226 223 226 222 240 235
194 193 194 194 198 198 195 190 190 191 192 193 192 190 192 191 190 191 188 188 191 188 182 185 184 183 182 176 172 179 176 173 177 174 173 180 185 184 186 177 185 180 194 192 189 204 202 208 208 204 197 204 221 232 231 227 226 224 227 225 222 224 224
192 194 197 197 198 196 191 188 189 191 193 192 192 194 195 195 193 191 188 188 188 184 186 189 182 181 178 175 177 175 180 181 177 173 178 180 182 183 174 189 187 190 188 199 201 196 203 201 203 207 208 202 219 227 225 226 229 219 224 216 225 226 224
196 197 196 197 197 193 192 191 191 192 194 196 198 197 196 196 190 188 191 190 188 189 190 184 181 177 177 177 178 179 182 178 174 176 179 183 180 172 181 190 193 194 198 200 200 198 198 199 206 208 212 207 222 226 227 226 230 223 221 206 219 228 230
192 193 196 197 196 195 194 192 192 193 194 194 196 196 197 193 191 193 193 189 194 194 184 179 180 178 179 182 177 178 174 174 173 178 179 180 175 183 191 194 190 197 197 205 195 200 199 201 205 204 205 213 219 231 233 234 236 219 215 192 212 221 226
193 194 196 198 198 197 193 192 195 197 198 199 197 196 190 188 193 196 188 190 189 184 185 188 188 181 181 175 181 174 176 173 176 184 182 178 183 187 196 194 192 194 204 197 209 198 196 201 208 206 206 209 216 221 229 230 241 234 210 199 219 230 230
189 193 201 199 199 196 192 193 194 196 197 192 185 187 191 195 193 188 192 194 190 188 187 188 186 188 180 178 175 177 177 175 183 183 177 181 189 191 193 192 194 200 189 199 219 201 204 207 211 207 205 208 221 224 227 226 234 236 213 215 223 242 230
193 196 195 201 201 196 194 189 189 190 188 186 189 193 192 188 190 193 194 189 189 189 195 190 185 175 169 171 178 183 178 176 185 180 182 187 188 192 191 195 198 193 191 207 216 215 207 212 212 209 204 212 227 230 230 228 227 230 217 223 222 235 244
193 200 209 206 196 194 187 187 185 183 188 193 196 191 190 193 194 192 190 191 190 195 193 186 170 155 163 180 189 182 175 183 182 179 187 190 189 190 194 194 199 195 205 215 213 213 222 217 217 211 208 217 233 235 234 232 230 230 221 221 221 224 237
195 200 201 193 190 188 180 171 179 189 191 193 192 194 192 191 192 190 191 190 193 197 188 173 161 175 175 177 180 182 183 186 179 187 192 191 183 191 194 195 195 194 216 225 224 222 218 229 221 222 219 223 230 234 232 230 225 226 229 228 222 221 228
195 197 191 187 186 171 180 188 188 191 195 194 195 193 192 192 191 192 190 194 194 188 178 176 173 174 169 176 182 189 189 184 184 193 194 189 184 191 193 191 189 194 219 219 223 221 220 224 225 217 222 223 226 225 227 226 219 218 222 224 224 224 228
189 186 187 185 181 190 185 184 194 197 195 196 195 195 193 191 191 190 191 192 189 186 179 173 167 165 166 187 194 192 189 185 191 195 193 187 186 188 187 194 196 203 218 213 212 210 220 223 217 219 209 219 209 210 211 211 210 211 218 224 224 223 227
178 187 193 188 189 184 189 196 197 197 198 198 200 198 197 195 192 190 189 190 187 180 175 173 173 172 177 187 193 188 189 189 192 193 188 183 181 182 186 201 205 227 228 209 206 209 210 207 204 215 200 212 204 208 199 201 208 215 219 220 219 221 227
182 195 196 190 192 191 194 197 200 200 199 201 198 197 197 194 194 193 195 191 184 178 181 176 174 179 182 186 191 188 185 185 190 186 177 176 177 175 192 201 225 236 234 218 207 209 210 203 198 198 210 214 210 214 213 209 218 217 215 216 225 218 226
190 194 192 191 193 197 200 202 200 200 198 197 197 198 196 195 194 192 189 187 185 184 181 173 182 182 186 191 191 182 175 180 177 175 171 170 171 180 193 203 222 224 227 219 208 207 208 205 202 196 195 199 217 227 226 225 227 223 217 211 209 211 219
191 190 188 193 197 202 205 205 206 202 199 199 197 198 196 195 194 193 192 190 185 187 183 182 184 187 188 193 188 166 156 175 173 160 168 178 181 183 205 214 212 219 217 212 205 207 207 200 201 202 197 199 208 222 227 228 229 231 228 225 224 217 214
184 184 186 197 204 206 208 210 207 202 203 202 201 198 196 195 193 188 194 189 191 191 185 186 187 190 193 192 171 142 168 180 160 158 171 178 192 198 216 211 209 213 211 205 208 212 206 204 204 199 197 202 213 224 230 235 239 237 237 235 234 228 221
185 183 191 198 203 207 210 211 208 205 205 203 200 197 199 191 183 192 194 191 196 187 186 192 191 193 193 183 153 150 164 170 158 169 191 195 207 214 204 206 212 216 209 211 207 202 206 208 200 207 204 205 218 231 235 239 244 241 240 239 238 235 226
182 189 194 199 202 207 215 217 220 220 215 208 203 202 197 185 190 197 194 193 184 187 193 194 191 153 71 55 73 95 144 186 177 179 219 209 211 205 208 209 219 217 213 206 196 204 208 200 208 210 207 211 220 234 238 239 249 245 245 243 238 237 227
196 194 197 202 212 218 216 211 213 212 208 207 203 191 161 181 192 172 171 182 189 196 193 183 114 120 144 127 124 161 187 189 167 193 210 213 209 206 209 215 224 217 210 198 194 196 200 201 207 210 211 217 221 230 239 240 243 248 249 247 241 241 229
193 185 203 213 211 217 195 195 203 203 211 197 163 172 179 187 174 173 189 181 191 192 181 150 156 159 162 164 165 172 183 185 192 203 197 204 204 204 214 220 220 220 205 196 198 201 199 209 203 207 213 220 223 227 245 250 242 245 249 245 244 238 219
175 191 201 215 203 219 213 206 201 211 190 160 177 175 188 176 169 171 156 173 189 187 168 149 139 119 129 176 176 178 182 195 197 200 211 210 209 216 221 222 223 216 191 201 204 199 201 205 202 204 208 219 215 209 228 241 242 237 245 250 248 231 216
120 163 192 200 210 254 255 235 231 191 163 166 151 149 85 95 104 110 123 123 70 62 54 58 104 150 187 193 185 185 186 189 196 193 206 204 209 217 222 223 219 207 199 201 197 205 210 205 209 213 212 206 209 212 223 243 256 252 245 243 246 227 215
192 196 200 193 187 206 220 201 157 95 84 96 124 143 138 136 134 135 142 133 129 130 140 160 171 181 199 207 189 179 181 193 190 191 198 205 215 214 215 212 211 194 180 204 204 213 198 204 213 221 211 207 213 230 237 249 265 260 249 240 238 222 218
200 199 220 228 327 45 85 113 116 110 135 155 159 149 146 145 146 151 156 171 169 167 171 167 172 179 182 191 290 215 184 183 183 188 194 205 208 202 210 208 182 180 187 200 197 201 214 211 199 211 221 217 223 231 230 240 256 260 244 233 224 212 214
66 76 104 109 126 113 111 104 108 142 156 140 144 148 148 150 153 170 172 159 156 171 170 167 169 172 174 153 174 234 210 184 185 189 201 201 193 190 197 192 197 176 180 198 197 201 224 222 212 214 227 221 221 221 228 228 237 243 231 229 220 210 204
71 57 53 70 90 96 95 95 101 102 102 135 149 150 152 150 154 146 150 161 177 175 162 167 174 172 164 160 152 228 247 210 192 199 198 175 157 171 195 197 175 181 188 194 194 204 223 224 219 222 236 229 219 221 229 232 225 235 240 229 222 212 202
63 74 69 71 70 75 107 103 99 104 117 133 144 152 156 150 153 161 160 177 180 161 158 158 152 142 143 151 155 197 259 247 211 200 181 169 170 169 187 177 166 171 172 183 198 216 236 241 229 229 244 248 238 230 231 231 235 226 232 223 217 215 211
60 67 62 53 75 95 103 101 111 121 139 150 157 160 163 157 155 165 172 174 118 112 110 119 128 144 175 202 185 175 220 225 215 190 167 162 163 174 174 179 180 176 183 187 199 222 246 255 243 240 254 258 258 241 238 237 234 242 239 234 223 225 219
37 31 36 67 86 104 119 138 140 135 134 153 162 169 168 167 157 161 162 152 131 134 136 136 142 158 186 203 203 217 220 217 205 183 170 172 167 174 183 180 174 188 200 194 212 225 237 251 230 230 244 252 254 245 235 240 248 260 254 245 237 226 221
40 34 38 34 35 52 104 113 124 132 137 140 162 164 166 161 156 152 149 132 128 133 137 141 152 175 185 172 185 199 196 207 201 185 180 169 173 179 182 181 185 198 198 194 216 221 227 245 220 228 231 243 251 254 251 247 253 258 262 256 248 237 127
36 61 68 58 38 96 121 134 136 142 142 147 161 161 153 134 107 120 125 124 121 117 119 140 160 169 178 184 188 188 196 196 183 158 128 127 133 153 178 194 194 200 203 202 217 223 230 232 226 230 236 245 251 253 258 262 262 259 264 253 227 148 131
0 39 43 69 73 125 150 152 146 147 147 150 160 156 147 132 125 132 131 134 143 140 144 155 168 171 189 195 175 163 161 158 149 144 145 160 165 170 170 188 193 196 213 215 214 217 227 222 221 221 223 236 245 248 261 265 262 265 261 255 205 140 151
201 141 119 100 96 143 165 161 148 149 145 145 149 143 138 140 141 146 148 157 167 161 156 157 141 91 73 125 145 148 149 167 179 170 167 155 104 51 47 20 336 302 294 51 358 278 243 223 229 221 212 215 222 229 264 268 263 258 238 234 182 164 152
194 161 150 147 133 139 146 151 139 137 137 143 147 145 145 147 154 155 151 135 137 83 77 79 83 93 153 162 129 139 167 176 165 145 150 147 145 126 97 62 66 36 333 54 45 30 355 310 229 232 251 232 245 226 241 255 276 282 173 125 114 107 100
176 176 174 156 127 126 143 149 145 140 138 145 141 134 134 127 119 124 132 148 165 135 117 105 102 113 132 200 174 184 163 157 166 163 134 134 114 116 141 140 23 25 29 36 10 352 349 323 294 290 267 243 283 27 49 347 5 76 87 85 85 84 84
305 224 164 167 166 163 158 163 158 150 143 138 135 132 125 122 126 128 119 95 76 67 70 84 89 104 167 190 202 179 169 174 171 151 142 133 139 147 157 159 165 337 345 59 54 26 5 345 6 31 110 166 198 176 64 57 69 84 82 87 95 99 110